Regional Weather Roundup
Issued by NWS

Home | Current Version | Previous Version | Text Only | Print | Product List | Glossary On
Versions: 1 2 3 4 5 6 7 8 9 10 11 12 13 14 15 16 17 18 19 20 21 22 23 24 25 26 27 28 29 30 31 32 33 34 35 36 37 38 39 40 41 42 43 44 45 46 47 48 49 50
000
ASUS44 KJAN 280710
RWRMS

MISSISSIPPI HOURLY WEATHER ROUNDUP
NATIONAL WEATHER SERVICE JACKSON MS
200 AM CDT THU MAY 28 2015

NOTE: "FAIR: INDICATES FEW OR NO CLOUDS BELOW 12,000 FEET WITH NO
SIGNIFICANT WEATHER AND/OR OBSTRUCTIONS TO VISIBILITY.

MSZ001>002-007>008-010>013-018>021-025>028-034>036-280800-
NORTHWEST MISSISSIPPI

CITY           SKY/WX    TMP DP  RH WIND       PRES   REMARKS
CLARKSDALE     MOCLDY    68  68 100 MISG      30.13F
CLEVELAND      FOG       68  68 100 E3        30.11F VSB 1/4
GREENWOOD      CLOUDY    70  67  90 E6        30.12F
GREENVILLE     CLEAR     68  67  96 CALM      30.10F
OLIVE BRANCH   CLOUDY    66 N/A N/A CALM      30.15F
OXFORD         CLOUDY    66  66 100 CALM      30.16F
TUNICA         CLOUDY    70  68  94 SE7       30.14F
$$

MSZ003>006-009-014>017-022>024-029>033-037>039-280800-
NORTHEAST MISSISSIPPI

CITY           SKY/WX    TMP DP  RH WIND       PRES   REMARKS
COLUMBUS AFB   CLOUDY    68  68 100 SW1       30.14S
GOLDN TRIANGLE CLOUDY    68  64  88 CALM      30.13S
STARKVILLE     FAIR      66  64  94 E5        30.14F
TUPELO         CLOUDY    68  65  90 CALM      30.14F
$$

MSZ040-058-280800-
CENTRAL MISSISSIPPI

CITY           SKY/WX    TMP DP  RH WIND       PRES   REMARKS
JACKSON INTL   CLOUDY    70  68  93 SE5       30.11F
JACKSON HAWKNS NOT AVBL
MERIDIAN KEY   CLOUDY    68  67  96 CALM      30.12F
MERIDIAN NAS   MOCLDY    67  66  97 NW6       30.13S FOG
RAYMOND        FAIR      68  63  83 CALM      30.11S
VICKSBURG      CLEAR     68  66  93 CALM      30.10F
$$

MSZ059>079-280800-
SOUTH MISSISSIPPI

CITY           SKY/WX    TMP DP  RH WIND       PRES   REMARKS
BROOKHAVEN     FAIR      64  64 100 CALM      30.12F
HATTIESBURG    FOG       69  68  96 CALM      30.11S VSB 1/4
MCCOMB         CLEAR     65  64  97 CALM      30.11F
NATCHEZ        CLEAR     68  64  88 CALM      30.10F
PINE BELT      CLOUDY    70  45  40 N3        30.12S VSB 1/4
$$

MSZ080>082-280800-
COASTAL MISSISSIPPI

CITY           SKY/WX    TMP DP  RH WIND       PRES   REMARKS
BILOXI         MOCLDY    74  73  97 NE2       30.08F
PASCAGOULA     MOCLDY    72  71  97 CALM      30.09F
GULFPORT       MOCLDY    73  70  90 CALM      30.08F
$$


USA.gov is the U.S. government's official web portal to all federal, state and local government web resources and services.